This is the latest recevied weather packets stored in our database for station/object NO3U. If no packets are shown the sender has not sent any weather packets the latest 10 day(s).
| Time | Temp. | Humidity | Pressure | Rain* | Wind** | Luminosity | Snow |
|---|---|---|---|---|---|---|---|
| 1777370205 | 11.67° C | 98% | 1014.7 hPa | 0 mm | - | 0 W/m² | - |
| 1777369902 | 11.67° C | 98% | 1015 hPa | 1.27 mm | - | 0 W/m² | - |
| 1777369598 | 11.67° C | 98% | 1014.9 hPa | 0 mm | - | 0 W/m² | - |
| 1777369293 | 11.67° C | 98% | 1015 hPa | 0 mm | - | 0 W/m² | - |
| 1777368992 | 11.67° C | 98% | 1015.1 hPa | 0 mm | - | 0 W/m² | - |
| 1777368687 | 11.67° C | 97% | 1015.2 hPa | 1.78 mm | - | 0 W/m² | - |
| 1777368381 | 11.67° C | 96% | 1015.5 hPa | 1.78 mm | - | 0 W/m² | - |
| 1777368080 | 11.67° C | 96% | 1015.5 hPa | 0 mm | - | 0 W/m² | - |
| 1777367776 | 11.67° C | 96% | 1015.7 hPa | 1.78 mm | - | 0 W/m² | - |
| 1777367473 | 11.67° C | 96% | 1015.7 hPa | 0 mm | - | 0 W/m² | - |
| 1777367173 | 11.67° C | 95% | 1015.5 hPa | 0 mm | - | 0 W/m² | - |
| 1777366868 | 12.22° C | 95% | 1015.5 hPa | 0 mm | - | 0 W/m² | - |
| 1777366563 | 12.22° C | 94% | 1015.5 hPa | 1.27 mm | - | 0 W/m² | - |
| 1777366262 | 12.22° C | 93% | 1015.5 hPa | 1.27 mm | - | 0 W/m² | - |
| 1777365959 | 12.22° C | 91% | 1015.5 hPa | 0 mm | - | 0 W/m² | - |
| 1777365656 | 12.78° C | 89% | 1015.4 hPa | 0 mm | - | 0 W/m² | - |
| 1777365355 | 12.78° C | 86% | 1015.4 hPa | 1.78 mm | - | 0 W/m² | - |
| 1777365054 | 13.33° C | 82% | 1015.4 hPa | 1.78 mm | - | 0 W/m² | - |
| 1777364750 | 14.44° C | 77% | 1015.2 hPa | 0 mm | - | 0 W/m² | - |
| 1777364449 | 15° C | 68% | 1015.4 hPa | 0 mm | - | 0 W/m² | - |
| 1777364146 | 15.56° C | 65% | 1015.1 hPa | 0 mm | - | 0 W/m² | - |
| 1777363843 | 15.56° C | 62% | 1014.7 hPa | 0 mm | - | 0 W/m² | - |
| 1777363539 | 15.56° C | 63% | 1014 hPa | 0 mm | - | 0 W/m² | - |
| 1777363237 | 15.56° C | 62% | 1014 hPa | 0 mm | - | 0 W/m² | - |
| 1777362933 | 15.56° C | 61% | 1014 hPa | 0 mm | - | 0 W/m² | - |
* Rain latest hour (hover to see other rain measurements)
** Current wind speed in m/s (hover to see current wind gust speed)